Location: Observatoire
(46.1952°N, 5.3391°E)
Time: 03:23:55
(UTC+01:00)

Altair - Pass Details

Date: 23 February 2026
Orbit: 1502 x 1682 km, 47.2° (Epoch: 13 March)

Event Time Altitude Azimuth Distance (km) Brightness Sun altitude
Rises 08:03:11 0° 283° (WNW) 4,658 9.3 4.9°
Reaches altitude 10° 08:06:11 10° 283° (WNW) 3,690 8.9 5.4°
Maximum altitude 08:15:32 85° 197° (SSW) 1,568 7.8 6.9°
Drops below altitude 10° 08:25:14 10° 111° (ESE) 3,818 13.1 8.5°
Sets 08:28:23 0° 111° (ESE) 4,826 12.5 9.0°
